Total_Precipitation_Accumulation
0.00 0.00 0.00 0.00 0.00 0.00 0.00 0.01 0.02 0.05 0.06 0.07 0.11 0.11 0.12 0.20 0.38 0.86 0.50 0.26 0.12 0.04 0.02 0.02 0.02 0.02 0.05 0.07 0.10 0.11 0.10 0.11 0.12 0.13 0.12 0.10 0.08 0.07 0.06 0.06 0.10 0.15 0.16 0.15 0.12 0.11 0.11 0.11 0.09
0.00 0.00 0.00 0.00 0.00 0.00 0.00 0.01 0.03 0.05 0.06 0.09 0.16 0.15 0.14 0.19 0.23 0.17 0.18 0.18 0.11 0.04 0.02 0.02 0.03 0.03 0.04 0.05 0.08 0.12 0.11 0.10 0.10 0.11 0.09 0.08 0.08 0.07 0.07 0.08 0.10 0.13 0.12 0.09 0.07 0.07 0.07 0.08 0.07
0.00 0.00 0.00 0.00 0.00 0.00 0.01 0.03 0.04 0.04 0.05 0.10 0.23 0.34 0.34 0.32 0.36 0.22 0.16 0.11 0.09 0.04 0.02 0.03 0.03 0.05 0.06 0.05 0.05 0.09 0.13 0.12 0.12 0.11 0.11 0.11 0.10 0.09 0.09 0.10 0.11 0.11 0.11 0.13 0.12 0.10 0.07 0.07 0.07
0.00 0.00 0.00 0.00 0.00 0.00 0.01 0.04 0.05 0.04 0.06 0.09 0.19 0.41 0.37 0.32 0.34 0.32 0.18 0.14 0.11 0.07 0.03 0.04 0.05 0.06 0.08 0.07 0.06 0.08 0.10 0.13 0.14 0.14 0.14 0.13 0.13 0.11 0.09 0.10 0.11 0.11 0.12 0.15 0.18 0.13 0.07 0.06 0.07
0.00 0.00 0.00 0.00 0.00 0.00 0.00 0.02 0.06 0.05 0.07 0.09 0.15 0.37 0.45 0.34 0.37 0.51 0.41 0.28 0.20 0.14 0.09 0.07 0.08 0.07 0.09 0.10 0.10 0.11 0.10 0.13 0.16 0.17 0.14 0.13 0.13 0.12 0.12 0.12 0.11 0.13 0.16 0.18 0.15 0.10 0.05 0.05 0.06
0.00 0.00 0.00 0.00 0.00 0.00 0.01 0.02 0.04 0.05 0.07 0.12 0.20 0.46 0.72 0.69 0.64 0.73 0.72 0.44 0.30 0.21 0.16 0.14 0.14 0.10 0.11 0.14 0.14 0.17 0.17 0.17 0.18 0.17 0.15 0.14 0.12 0.13 0.15 0.15 0.15 0.17 0.21 0.20 0.11 0.05 0.04 0.03 0.05
0.00 0.00 0.00 0.00 0.01 0.01 0.01 0.02 0.04 0.07 0.09 0.16 0.26 0.61 0.83 0.98 0.99 0.81 0.77 0.61 0.34 0.29 0.27 0.25 0.20 0.18 0.18 0.20 0.18 0.20 0.22 0.20 0.18 0.17 0.18 0.19 0.20 0.19 0.19 0.18 0.18 0.20 0.21 0.15 0.08 0.05 0.03 0.03 0.04
0.00 0.00 0.00 0.00 0.01 0.01 0.02 0.04 0.06 0.12 0.16 0.19 0.31 0.73 1.06 1.11 1.00 0.90 0.76 0.77 0.54 0.46 0.44 0.42 0.43 0.37 0.24 0.22 0.25 0.23 0.26 0.26 0.21 0.17 0.19 0.21 0.19 0.18 0.17 0.15 0.17 0.17 0.16 0.12 0.08 0.07 0.05 0.04 0.03
0.00 0.00 0.00 0.00 0.00 0.02 0.04 0.05 0.08 0.12 0.21 0.30 0.34 0.58 0.99 0.88 0.98 1.21 1.06 0.96 0.79 0.65 0.62 0.53 0.55 0.51 0.36 0.28 0.27 0.28 0.31 0.29 0.22 0.17 0.17 0.17 0.24 0.28 0.25 0.17 0.18 0.16 0.15 0.13 0.11 0.08 0.06 0.04 0.03
0.00 0.00 0.00 0.00 0.00 0.01 0.03 0.07 0.12 0.15 0.18 0.30 0.42 0.47 0.69 0.86 0.92 1.11 1.34 1.17 1.00 0.85 0.82 0.74 0.60 0.50 0.47 0.36 0.33 0.37 0.35 0.34 0.26 0.25 0.21 0.26 0.45 0.55 0.42 0.38 0.30 0.23 0.19 0.16 0.14 0.11 0.07 0.05 0.04
0.00 0.00 0.00 0.00 0.00 0.00 0.01 0.06 0.12 0.21 0.28 0.38 0.54 0.61 0.69 0.84 1.08 1.18 1.49 1.39 1.25 1.13 0.94 0.99 0.84 0.68 0.74 0.74 0.59 0.50 0.46 0.46 0.41 0.48 0.48 0.55 0.66 0.60 0.57 0.63 0.45 0.34 0.26 0.24 0.24 0.14 0.12 0.10 0.10
0.00 0.00 0.00 0.00 0.00 0.00 0.01 0.02 0.08 0.18 0.42 0.54 0.86 1.10 1.08 0.97 1.26 1.35 1.66 1.58 1.53 1.49 1.25 1.12 1.07 0.94 0.93 1.04 0.89 0.73 0.61 0.60 0.60 0.67 0.60 0.75 0.85 0.80 0.78 0.86 0.66 0.57 0.52 0.52 0.44 0.34 0.28 0.21 0.17
0.00 0.00 0.00 0.00 0.00 0.00 0.00 0.01 0.03 0.11 0.30 0.46 0.87 1.26 1.21 1.03 1.05 1.20 1.77 1.62 1.56 1.57 1.51 1.27 1.26 1.16 1.19 1.31 1.12 1.00 0.94 0.80 0.76 0.81 0.78 0.83 0.88 0.91 0.96 0.89 0.86 0.78 0.77 0.76 0.62 0.57 0.52 0.40 0.37
0.00 0.00 0.00 0.00 0.00 0.00 0.00 0.01 0.02 0.07 0.12 0.23 0.48 0.69 0.73 0.79 0.86 0.99 1.30 1.35 1.27 1.29 1.44 1.51 1.42 1.32 1.23 1.27 1.24 1.11 0.96 0.95 0.94 0.95 0.90 0.86 0.93 1.10 1.15 1.10 1.12 1.09 1.09 1.17 1.02 0.86 0.85 0.75 0.70
0.00 0.00 0.00 0.00 0.00 0.00 0.00 0.02 0.05 0.08 0.08 0.19 0.28 0.29 0.40 0.53 0.75 0.98 1.16 1.20 1.23 1.28 1.37 1.49 1.46 1.40 1.36 1.39 1.42 1.31 1.15 1.12 1.15 1.18 1.22 1.10 1.09 1.27 1.32 1.43 1.43 1.40 1.38 1.40 1.41 1.31 1.26 1.16 1.11
0.00 0.00 0.00 0.00 0.00 0.00 0.00 0.03 0.07 0.12 0.13 0.14 0.14 0.14 0.23 0.36 0.54 0.71 0.89 1.08 1.12 1.14 1.27 1.31 1.39 1.42 1.53 1.68 1.75 1.55 1.50 1.47 1.50 1.42 1.43 1.33 1.28 1.42 1.57 1.64 1.67 1.67 1.65 1.72 1.76 1.73 1.56 1.47 1.37
0.00 0.00 0.00 0.00 0.00 0.00 0.00 0.05 0.13 0.15 0.16 0.11 0.10 0.12 0.17 0.29 0.37 0.49 0.64 0.81 0.93 1.00 1.27 1.39 1.49 1.64 1.69 1.79 1.94 1.93 1.95 1.92 1.87 1.86 1.76 1.80 1.83 1.79 1.86 1.94 2.03 2.08 2.14 2.14 2.07 2.06 1.85 1.81 1.73
0.00 0.00 0.00 0.00 0.00 0.00 0.01 0.04 0.12 0.15 0.16 0.19 0.21 0.21 0.21 0.30 0.37 0.44 0.57 0.74 0.87 1.03 1.31 1.53 1.70 1.90 2.14 2.16 2.27 2.23 2.39 2.53 2.55 2.65 2.58 2.42 2.44 2.45 2.53 2.52 2.54 2.54 2.57 2.46 2.43 2.39 2.21 2.05 2.02
0.00 0.00 0.00 0.01 0.01 0.01 0.02 0.07 0.14 0.26 0.33 0.36 0.35 0.28 0.27 0.33 0.38 0.53 0.75 1.00 1.27 1.44 1.50 1.60 1.74 1.92 2.10 2.38 2.68 2.81 2.89 3.14 3.27 3.36 3.50 3.47 3.39 3.46 3.48 3.38 3.28 3.15 3.00 2.84 2.74 2.58 2.39 2.19 2.10
0.00 0.01 0.01 0.02 0.02 0.03 0.05 0.14 0.23 0.30 0.32 0.39 0.44 0.42 0.37 0.40 0.53 0.81 1.07 1.44 1.62 1.68 1.68 1.75 1.85 2.09 2.36 2.70 3.11 3.53 3.72 3.89 3.93 3.98 4.16 4.25 4.27 4.39 4.49 4.38 4.17 3.96 3.58 3.15 2.85 2.64 2.49 2.27 2.20
0.01 0.01 0.02 0.03 0.04 0.06 0.10 0.28 0.39 0.43 0.44 0.49 0.56 0.67 0.62 0.66 0.86 1.07 1.27 1.40 1.58 1.70 1.79 1.89 2.17 2.57 2.99 3.45 3.93 4.37 4.66 4.70 4.66 4.42 4.46 4.58 4.55 4.60 4.77 4.74 4.48 4.10 3.54 3.02 2.82 2.71 2.55 2.40 2.30
0.01 0.01 0.01 0.02 0.04 0.08 0.11 0.38 0.66 0.72 0.71 0.63 0.63 0.67 0.66 0.74 0.91 1.05 1.23 1.44 1.55 1.69 1.87 1.99 2.31 2.85 3.33 3.77 4.40 4.91 5.21 5.36 5.43 5.24 4.93 4.77 4.61 4.50 4.41 4.29 3.91 3.46 3.10 2.81 2.71 2.65 2.44 2.41 2.27
0.01 0.01 0.01 0.01 0.03 0.08 0.10 0.29 0.74 0.87 0.94 0.85 0.71 0.68 0.62 0.57 0.67 0.84 0.98 1.29 1.54 1.63 1.69 1.79 2.19 2.79 3.52 4.23 4.74 5.21 5.58 5.70 5.63 5.29 4.92 4.51 4.19 3.80 3.46 3.14 2.90 2.76 2.54 2.33 2.24 2.20 2.13 1.99 1.88
0.01 0.01 0.01 0.02 0.05 0.12 0.13 0.24 0.73 1.09 1.24 1.23 0.90 0.70 0.62 0.53 0.54 0.60 0.71 0.94 1.26 1.36 1.53 1.77 2.12 2.81 3.57 4.17 4.64 4.98 5.31 5.32 5.05 4.65 4.20 3.90 3.53 3.11 2.70 2.51 2.30 2.15 1.97 1.74 1.61 1.59 1.62 1.65 1.69
0.01 0.02 0.10 0.17 0.20 0.20 0.18 0.33 0.79 1.02 0.98 0.92 0.80 0.67 0.66 0.52 0.49 0.52 0.57 0.73 0.98 1.18 1.47 1.84 2.23 2.76 3.22 3.72 4.13 4.35 4.52 4.54 4.46 4.22 3.84 3.56 3.20 2.80 2.39 2.03 1.84 1.63 1.44 1.35 1.30 1.27 1.26 1.30 1.39
0.01 0.03 0.16 0.26 0.27 0.31 0.35 0.63 1.07 0.93 0.71 0.72 0.71 0.62 0.59 0.58 0.57 0.63 0.72 0.83 0.96 1.10 1.30 1.65 1.99 2.41 2.65 2.88 3.21 3.43 3.54 3.56 3.47 3.30 3.05 2.75 2.46 2.20 1.92 1.53 1.23 1.07 0.95 0.91 0.92 0.96 1.01 1.04 1.08
0.02 0.03 0.06 0.09 0.16 0.34 0.61 0.97 1.38 1.33 0.91 0.72 0.70 0.60 0.54 0.52 0.53 0.63 0.73 0.80 0.86 0.95 1.13 1.30 1.49 1.76 2.03 2.27 2.41 2.52 2.56 2.47 2.40 2.23 2.01 1.83 1.65 1.46 1.24 1.01 0.86 0.78 0.75 0.71 0.69 0.70 0.74 0.78 0.84
0.03 0.05 0.06 0.10 0.26 0.52 0.72 1.11 1.60 1.65 1.24 0.99 0.79 0.67 0.61 0.55 0.56 0.64 0.67 0.70 0.71 0.74 0.88 1.01 1.17 1.32 1.49 1.64 1.68 1.62 1.61 1.60 1.47 1.35 1.26 1.11 0.97 0.86 0.78 0.69 0.66 0.62 0.57 0.56 0.56 0.55 0.56 0.64 0.68
0.06 0.06 0.09 0.12 0.16 0.45 0.80 1.26 1.58 1.83 1.66 1.38 1.03 0.79 0.70 0.69 0.65 0.64 0.62 0.60 0.55 0.55 0.65 0.75 0.83 0.98 1.09 1.13 1.14 1.06 1.00 0.93 0.87 0.79 0.78 0.71 0.64 0.63 0.60 0.54 0.52 0.52 0.52 0.51 0.48 0.49 0.47 0.51 0.62
0.07 0.08 0.10 0.19 0.23 0.31 0.65 1.47 1.78 2.04 1.93 1.64 1.23 0.94 0.83 0.79 0.71 0.63 0.56 0.50 0.46 0.48 0.50 0.56 0.64 0.69 0.71 0.70 0.67 0.65 0.61 0.59 0.58 0.56 0.54 0.55 0.53 0.51 0.51 0.48 0.47 0.47 0.50 0.51 0.50 0.49 0.50 0.50 0.54